Retour au catalogue

THOR ABLESTAR DEB

ActifLEO
NORAD 417·DEBRIS·🇺🇸 United States

Lancé Jun 29, 1961 depuis Cape Canaveral Space Force Station

Loading…

Prochains Passages (prochaines 24 heures)

TLE

FraisSource: Space-Track

Époque: Sep 9, 2026, 15:28 UTC

1 00417U 61015ES  26252.64473815  .00000115  00000-0  89632-4 0  9999
2 00417  66.7473 353.6584 0063490  36.6516 323.8895 14.20807924349494

Suivez THOR ABLESTAR DEB en temps réel avec AllMySat

Download on the App Store